TimePST,TemperatureF,Dew PointF,Humidity,Sea Level PressureIn,VisibilityMPH,Wind Direction,Wind SpeedMPH,Gust SpeedMPH,PrecipitationIn,Events,Conditions,WindDirDegrees,DateUTC
12:53 AM,46.4,41.0,81,30.33,10.0,SSE,8.1,-,N/A,,Overcast,160,2012-03-03 08:53:00
1:35 AM,46.4,41.0,81,30.34,10.0,South,10.4,-,N/A,,Overcast,170,2012-03-03 09:35:00
1:53 AM,46.0,42.1,86,30.34,10.0,SSE,9.2,-,N/A,,Overcast,160,2012-03-03 09:53:00
2:53 AM,46.9,42.1,83,30.34,10.0,SSE,9.2,-,N/A,,Overcast,160,2012-03-03 10:53:00
3:53 AM,46.4,42.8,87,30.33,10.0,SSE,5.8,-,N/A,,Overcast,160,2012-03-03 11:53:00
4:53 AM,46.9,43.0,86,30.33,10.0,SSE,8.1,-,N/A,,Overcast,160,2012-03-03 12:53:00
5:53 AM,46.9,43.0,86,30.32,10.0,Variable,6.9,16.1,N/A,,Overcast,0,2012-03-03 13:53:00
6:53 AM,48.0,44.1,86,30.31,10.0,South,9.2,21.9,N/A,,Overcast,180,2012-03-03 14:53:00
7:53 AM,48.0,44.1,86,30.31,10.0,SSW,10.4,20.7,N/A,,Overcast,200,2012-03-03 15:53:00
8:53 AM,48.9,44.1,83,30.33,10.0,South,9.2,18.4,N/A,,Overcast,190,2012-03-03 16:53:00
9:40 AM,51.8,44.6,76,30.33,10.0,South,11.5,-,N/A,,Mostly Cloudy,180,2012-03-03 17:40:00
9:53 AM,51.1,44.1,77,30.33,10.0,South,11.5,19.6,N/A,,Mostly Cloudy,180,2012-03-03 17:53:00
10:53 AM,52.0,43.0,71,30.34,10.0,South,10.4,23.0,N/A,,Clear,190,2012-03-03 18:53:00
11:53 AM,53.1,43.0,69,30.35,10.0,SSW,10.4,24.2,N/A,,Mostly Cloudy,200,2012-03-03 19:53:00
12:53 PM,55.0,43.0,64,30.35,10.0,South,11.5,20.7,N/A,,Scattered Clouds,190,2012-03-03 20:53:00
1:53 PM,55.0,43.0,64,30.35,10.0,South,12.7,21.9,N/A,,Scattered Clouds,180,2012-03-03 21:53:00
2:53 PM,54.0,42.1,64,30.35,10.0,South,10.4,21.9,N/A,,Partly Cloudy,180,2012-03-03 22:53:00
3:53 PM,54.0,42.1,64,30.35,10.0,South,15.0,23.0,N/A,,Clear,190,2012-03-03 23:53:00
4:53 PM,52.0,41.0,66,30.36,10.0,South,16.1,28.8,N/A,,Scattered Clouds,180,2012-03-04 00:53:00
5:34 PM,51.8,41.0,67,30.35,10.0,South,16.1,24.2,N/A,,Mostly Cloudy,190,2012-03-04 01:34:00
5:53 PM,50.0,41.0,71,30.35,10.0,South,16.1,23.0,N/A,,Scattered Clouds,180,2012-03-04 01:53:00
6:53 PM,48.9,41.0,74,30.36,10.0,South,12.7,26.5,N/A,,Scattered Clouds,180,2012-03-04 02:53:00
7:53 PM,48.0,41.0,77,30.37,10.0,South,12.7,24.2,N/A,,Scattered Clouds,180,2012-03-04 03:53:00
8:53 PM,48.0,42.1,80,30.37,10.0,South,9.2,-,N/A,,Mostly Cloudy,170,2012-03-04 04:53:00
9:53 PM,48.0,42.1,80,30.37,10.0,SSE,10.4,-,N/A,,Mostly Cloudy,160,2012-03-04 05:53:00
10:53 PM,48.0,41.0,77,30.36,10.0,South,9.2,-,N/A,,Mostly Cloudy,170,2012-03-04 06:53:00
11:53 PM,48.0,41.0,77,30.36,10.0,South,5.8,-,N/A,,Overcast,180,2012-03-04 07:53:00